Regional Weather Roundup
Issued by NWS

Home | Current Version | Previous Version | Graphics & Text | Print | Product List | Glossary Off
Versions: 1 2 3 4 5 6 7 8 9 10 11 12 13 14 15 16 17 18 19 20 21 22 23 24 25 26 27 28 29 30 31 32 33 34 35 36 37 38 39 40 41 42 43 44 45 46 47 48 49 50

000
ASUS43 KDMX 261001
RWRIA

WEATHER ROUNDUP FOR IOWA
NATIONAL WEATHER SERVICE DES MOINES IA
500 AM CDT MON JUN 26 2017

NOTE: "FAIR" INDICATES FEW OR NO CLOUDS BELOW 12,000 FEET WITH NO
SIGNIFICANT WEATHER AND/OR OBSTRUCTIONS TO VISIBILITY.

* - THESE STATIONS ARE NOT NWS STATIONS...THUS NOT UNDER NWS
QUALITY CONTROL.  THEY ALSO DO NOT REPORT WEATHER SUCH
AS PRECIPITATION OR FOG.

IAZ001>003-012>014-020>022-031>034-043>046-261100-
   NORTHWEST IOWA

CITY           SKY/WX    TMP DP  RH WIND       PRES   REMARKS
CARROLL *      CLOUDY    54  54 100 CALM      30.21F
CHEROKEE *     CLOUDY    52  52 100 S3        30.19F
DENISON *      LGT RAIN  54  52  94 E6        30.23F
LE MARS *      CLOUDY    54  50  87 CALM      30.19F
ORANGE CITY *  MOCLDY    54  54 100 S3        30.18F
SHELDON *      PTCLDY    52  52 100 CALM      30.18F
SIOUX CITY     CLOUDY    56  52  86 S9        30.19R
SPENCER        PTCLDY    52  50  93 W3        30.19S
STORM LAKE *   CLOUDY    54  52  94 S7        30.19F
$$

IAZ055>058-069>071-079>083-090>094-261100-
   SOUTHWEST IOWA

CITY           SKY/WX    TMP DP  RH WIND       PRES   REMARKS
ATLANTIC *     CLOUDY    55  52  88 NE8       30.21R
AUDUBON *      LGT RAIN  54  48  82 N3        30.25R
CLARINDA *       N/A     54  52  94 CALM      30.25R
COUNCIL BLFS * CLOUDY    55  55 100 N5        30.20S
CRESTON *      CLOUDY    54  48  82 E6        30.21F
HARLAN  *      LGT RAIN  55  54  94 NE9G17    30.25R
LAMONI         CLEAR     53  47  79 NW3       30.21R
RED OAK *      CLOUDY    55  52  88 CALM      30.22S
SHENANDOAH *   CLOUDY    55  52  88 CALM      30.22S
$$

IAZ047>049-059>061-072>074-084-261100-
   CENTRAL IOWA

CITY           SKY/WX    TMP DP  RH WIND       PRES   REMARKS
AMES           LGT RAIN  56  54  93 NW6       30.22F
ANKENY *       LGT RAIN  55  52  88 N8        30.25R
BOONE *        CLOUDY    55  52  88 W5        30.21F
CHARITON *     CLOUDY    52  48  87 NE5       30.20F
DES MOINES     LGT RAIN  58  50  75 N10       30.24R
GRINNELL*      LGT RAIN  55  49  80 W9        30.23R
KNOXVILLE *    CLOUDY    55  50  82 NW6       30.21R
MARSHALLTOWN   CLOUDY    56  51  84 W10       30.21R
NEWTON *       CLOUDY    55  50  82 NW8       30.23R
PELLA *        LGT RAIN  55  49  82 N8        30.25R
PERRY *        LGT RAIN  55  53  91 N6        30.23F
$$

IAZ004>006-015-016-023>025-035-036-261100-
   NORTH CENTRAL IOWA

CITY           SKY/WX    TMP DP  RH WIND       PRES   REMARKS
ALGONA *       CLEAR     54  54 100 W6        30.19S
CLARION *        N/A     54  54 100 SW6       30.19F
ESTHERVILLE    CLEAR     50  50 100 NW5       30.19R
FORT DODGE *   CLOUDY    55  48  76 W5        30.21S
MASON CITY     MOCLDY    53  49  86 W9        30.19R
FOREST CITY *  CLOUDY    54  43  66 CALM      30.18S
WEBSTER CITY * MOCLDY    55  52  88 W9        30.18F
IOWA FALLS *   CLOUDY    56  53  89 W9        30.21S
$$

IAZ007>011-017>019-026>030-037>042-050>054-066-261100-
   NORTHEAST IOWA

CITY           SKY/WX    TMP DP  RH WIND       PRES   REMARKS
CEDAR RAPIDS   MOCLDY    52  48  86 W9        30.17R
CHARLES CITY * PTCLDY    52  50  93 W7        30.17R
CLINTON *      CLEAR     50  47  89 W6        30.15R
DECORAH *      PTCLDY    50  45  81 W5        30.13R
DUBUQUE        CLOUDY    48  44  86 CALM      30.14R
MONTICELLO *   MOCLDY    52  46  82 NW3       30.15R
OELWEIN *      PTCLDY    52  48  87 NW9       30.16S
WATERLOO       CLOUDY    55  49  80 W8        30.17R
$$

IAZ064-065-067-068-078-261100-
   EAST CENTRAL IOWA

CITY           SKY/WX    TMP DP  RH WIND       PRES   REMARKS
DAVENPORT      CLEAR     50  46  86 W3        30.15S
IOWA CITY      MOCLDY    54  46  74 W7        30.18S
MUSCATINE *    PTCLDY    54  45  71 W3        30.17S
QUAD CITIES    CLEAR     51  45  79 SW5       30.15S
$$

IAZ062-063-075>077-085>089-095>099-261100-
   SOUTHEAST IOWA

CITY           SKY/WX    TMP DP  RH WIND       PRES   REMARKS
BURLINGTON     CLEAR     53  47  79 W6        30.19R
FAIRFIELD *    CLOUDY    54  46  76 W7        30.20R
FORT MADISON * CLEAR     54  48  82 W6        30.21R
KEOKUK *       CLEAR     52  48  87 W5        30.20R
OSKALOOSA *      N/A     53  48  84 N9        30.21S
OTTUMWA        CLOUDY    53  50  89 SW5       30.19F
$$

ABBREVIATIONS USED IN REMARKS
   TC - TEMPERATURES IN CELSIUS
  WCI - WIND CHILL INDEX
   HX - HEAT INDEX
  VSB - VISIBILITY
$$





USA.gov is the U.S. government's official web portal to all federal, state and local government web resources and services.